Location: Unspecified
(0.0000°N, 0.0000°E)
Time: 19:01:05
(UTC+00:00)

A-11 Canister half - Pass Details

Date: 28 November 2019
Orbit: 1515 x 1685 km, 47.2° (Epoch: 08 December)

Event Time Altitude Azimuth Distance (km) Brightness Sun altitude
Rises 23:04:23 0° 333° (NNW) 4,910 - -66.1°
Reaches altitude 10° 23:07:46 10° 339° (NNW) 3,910 - -66.5°
Maximum altitude 23:17:14 47° 50° (NE) 2,067 - -67.3°
Drops below altitude 10° 23:26:23 10° 120° (ESE) 3,801 - -68.0°
Sets 23:29:36 0° 126° (SE) 4,764 - -68.1°
